Time,TemperatureF,DewpointF,PressureIn,WindDirection,WindDirectionDegrees,WindSpeedMPH,WindSpeedGustMPH,Humidity,HourlyPrecipIn,Conditions,Clouds,dailyrainin,SoftwareType,DateUTC
2013-08-25 00:02:00,72.7,68.9,30.12,SE,130,0.0,0.0,88,0.00,,---,0.00,VWS V14.00,2013-08-25 05:02:00,
2013-08-25 00:07:00,72.5,68.8,30.12,SE,130,0.0,0.0,88,0.00,,---,0.00,VWS V14.00,2013-08-25 05:07:00,
2013-08-25 00:12:00,72.5,68.8,30.12,SE,130,0.0,0.0,88,0.00,,---,0.00,VWS V14.00,2013-08-25 05:12:00,
2013-08-25 00:17:00,72.3,68.9,30.12,SE,130,0.0,0.0,89,0.00,,---,0.00,VWS V14.00,2013-08-25 05:17:00,
2013-08-25 00:22:00,72.1,68.7,30.12,SE,130,0.0,0.0,89,0.00,,---,0.00,VWS V14.00,2013-08-25 05:22:00,
2013-08-25 00:27:00,72.1,68.7,30.12,SE,130,0.0,0.0,89,0.00,,---,0.00,VWS V14.00,2013-08-25 05:27:00,
2013-08-25 00:32:00,72.1,68.7,30.12,SE,130,0.0,0.0,89,0.00,,---,0.00,VWS V14.00,2013-08-25 05:32:00,
2013-08-25 00:37:00,72.1,68.7,30.12,SE,130,0.0,0.0,89,0.00,,---,0.00,VWS V14.00,2013-08-25 05:37:00,
2013-08-25 00:42:00,72.1,68.7,30.12,SE,130,0.0,0.0,89,0.00,,---,0.00,VWS V14.00,2013-08-25 05:42:00,
2013-08-25 00:47:00,72.0,68.6,30.13,SE,130,0.0,0.0,89,0.00,,---,0.00,VWS V14.00,2013-08-25 05:47:00,
2013-08-25 00:52:00,72.0,68.6,30.13,SE,130,0.0,0.0,89,0.00,,---,0.00,VWS V14.00,2013-08-25 05:52:00,
2013-08-25 00:57:00,72.0,68.9,30.13,SE,130,0.0,0.0,90,0.00,,---,0.00,VWS V14.00,2013-08-25 05:57:00,
2013-08-25 01:02:00,72.0,68.9,30.13,SE,130,0.0,0.0,90,0.00,,---,0.00,VWS V14.00,2013-08-25 06:02:00,
2013-08-25 01:07:00,72.0,68.9,30.12,SE,130,0.0,0.0,90,0.00,,---,0.00,VWS V14.00,2013-08-25 06:07:00,
2013-08-25 01:12:00,71.8,68.7,30.12,SE,130,0.0,0.0,90,0.00,,---,0.00,VWS V14.00,2013-08-25 06:12:00,
2013-08-25 01:17:00,71.8,68.7,30.12,SE,130,0.0,0.0,90,0.00,,---,0.00,VWS V14.00,2013-08-25 06:17:00,
2013-08-25 01:22:00,71.8,68.7,30.12,SE,130,0.0,0.0,90,0.00,,---,0.00,VWS V14.00,2013-08-25 06:22:00,
2013-08-25 01:27:00,71.8,68.7,30.12,SE,130,0.0,0.0,90,0.00,,---,0.00,VWS V14.00,2013-08-25 06:27:00,
2013-08-25 01:32:00,71.6,68.5,30.12,SE,130,0.0,0.0,90,0.00,,---,0.00,VWS V14.00,2013-08-25 06:32:00,
2013-08-25 01:37:00,71.6,68.5,30.12,SE,130,0.0,0.0,90,0.00,,---,0.00,VWS V14.00,2013-08-25 06:37:00,
2013-08-25 01:42:00,71.6,68.5,30.12,SE,130,0.0,0.0,90,0.00,,---,0.00,VWS V14.00,2013-08-25 06:42:00,
2013-08-25 01:47:00,71.3,68.2,30.13,SE,130,0.0,0.0,90,0.00,,---,0.00,VWS V14.00,2013-08-25 06:47:00,
2013-08-25 01:52:00,71.3,68.2,30.13,SE,130,0.0,0.0,90,0.00,,---,0.00,VWS V14.00,2013-08-25 06:52:00,
2013-08-25 01:57:00,71.3,68.5,30.13,SE,130,0.0,0.0,91,0.00,,---,0.00,VWS V14.00,2013-08-25 06:57:00,
2013-08-25 02:02:00,71.3,68.5,30.13,SE,130,0.0,0.0,91,0.00,,---,0.00,VWS V14.00,2013-08-25 07:02:00,
2013-08-25 02:07:00,71.1,68.3,30.13,SE,130,0.0,0.0,91,0.00,,---,0.00,VWS V14.00,2013-08-25 07:07:00,
2013-08-25 02:12:00,71.1,68.3,30.13,SE,130,0.0,0.0,91,0.00,,---,0.00,VWS V14.00,2013-08-25 07:12:00,
2013-08-25 02:17:00,71.1,68.3,30.13,SE,130,0.0,0.0,91,0.00,,---,0.00,VWS V14.00,2013-08-25 07:17:00,
2013-08-25 02:22:00,71.1,68.3,30.13,SE,130,0.0,0.0,91,0.00,,---,0.00,VWS V14.00,2013-08-25 07:22:00,
2013-08-25 02:27:00,70.9,68.2,30.13,SE,130,0.0,0.0,91,0.00,,---,0.00,VWS V14.00,2013-08-25 07:27:00,
2013-08-25 02:32:00,70.8,68.1,30.14,SE,130,0.0,0.0,91,0.00,,---,0.00,VWS V14.00,2013-08-25 07:32:00,
2013-08-25 02:37:00,70.6,67.8,30.14,SE,130,0.0,0.0,91,0.00,,---,0.00,VWS V14.00,2013-08-25 07:37:00,
2013-08-25 02:42:00,70.6,67.8,30.13,SE,130,0.0,0.0,91,0.00,,---,0.00,VWS V14.00,2013-08-25 07:42:00,
2013-08-25 02:47:00,70.4,67.7,30.13,SE,130,0.0,0.0,91,0.00,,---,0.00,VWS V14.00,2013-08-25 07:47:00,
2013-08-25 02:52:00,70.6,68.2,30.13,SE,130,0.0,0.0,92,0.00,,---,0.00,VWS V14.00,2013-08-25 07:52:00,
2013-08-25 02:57:00,70.4,68.0,30.14,SE,130,0.0,0.0,92,0.00,,---,0.00,VWS V14.00,2013-08-25 07:57:00,
2013-08-25 03:01:00,70.4,68.0,30.14,SE,130,0.0,0.0,92,0.00,,---,0.00,VWS V14.00,2013-08-25 08:01:00,
2013-08-25 03:06:00,70.4,68.0,30.14,SE,130,0.0,0.0,92,0.00,,---,0.00,VWS V14.00,2013-08-25 08:06:00,
2013-08-25 03:11:00,70.3,67.9,30.14,SE,130,0.0,0.0,92,0.00,,---,0.00,VWS V14.00,2013-08-25 08:11:00,
2013-08-25 03:16:00,70.3,67.9,30.14,SE,130,0.0,0.0,92,0.00,,---,0.00,VWS V14.00,2013-08-25 08:16:00,
2013-08-25 03:21:00,70.1,67.7,30.14,SE,130,0.0,0.0,92,0.00,,---,0.00,VWS V14.00,2013-08-25 08:21:00,
2013-08-25 03:26:00,70.1,67.7,30.14,SE,130,0.0,0.0,92,0.00,,---,0.00,VWS V14.00,2013-08-25 08:26:00,
2013-08-25 03:31:00,70.3,67.9,30.14,SE,130,0.0,0.0,92,0.00,,---,0.00,VWS V14.00,2013-08-25 08:31:00,
2013-08-25 03:36:00,70.3,67.9,30.14,SE,130,0.0,0.0,92,0.00,,---,0.00,VWS V14.00,2013-08-25 08:36:00,
2013-08-25 03:41:00,70.1,67.7,30.14,SE,130,0.0,0.0,92,0.00,,---,0.00,VWS V14.00,2013-08-25 08:41:00,
2013-08-25 03:46:00,70.1,67.7,30.14,SE,130,0.0,0.0,92,0.00,,---,0.00,VWS V14.00,2013-08-25 08:46:00,
2013-08-25 03:51:00,69.9,67.5,30.14,SE,130,0.0,0.0,92,0.00,,---,0.00,VWS V14.00,2013-08-25 08:51:00,
2013-08-25 03:56:00,69.8,67.4,30.15,SE,130,0.0,0.0,92,0.00,,---,0.00,VWS V14.00,2013-08-25 08:56:00,
2013-08-25 04:01:00,69.8,67.4,30.15,SE,130,0.0,0.0,92,0.00,,---,0.00,VWS V14.00,2013-08-25 09:01:00,
2013-08-25 04:06:00,69.8,67.4,30.15,SE,130,0.0,0.0,92,0.00,,---,0.00,VWS V14.00,2013-08-25 09:06:00,
2013-08-25 04:11:00,69.8,67.4,30.15,SE,130,0.0,0.0,92,0.00,,---,0.00,VWS V14.00,2013-08-25 09:11:00,
2013-08-25 04:16:00,69.9,67.5,30.15,SE,130,0.0,0.0,92,0.00,,---,0.00,VWS V14.00,2013-08-25 09:16:00,
2013-08-25 04:21:00,69.9,67.8,30.15,SE,130,0.0,0.0,93,0.00,,---,0.00,VWS V14.00,2013-08-25 09:21:00,
2013-08-25 04:26:00,69.9,67.8,30.15,SE,130,0.0,0.0,93,0.00,,---,0.00,VWS V14.00,2013-08-25 09:26:00,
2013-08-25 04:31:00,69.9,67.8,30.15,SE,130,0.0,0.0,93,0.00,,---,0.00,VWS V14.00,2013-08-25 09:31:00,
2013-08-25 04:36:00,69.9,67.8,30.15,SE,130,0.0,0.0,93,0.00,,---,0.00,VWS V14.00,2013-08-25 09:36:00,
2013-08-25 04:41:00,69.9,67.8,30.15,SE,130,0.0,0.0,93,0.00,,---,0.00,VWS V14.00,2013-08-25 09:41:00,
2013-08-25 04:46:00,69.9,67.8,30.16,SE,130,0.0,0.0,93,0.00,,---,0.00,VWS V14.00,2013-08-25 09:46:00,
2013-08-25 04:51:00,69.9,67.8,30.15,SE,130,0.0,0.0,93,0.00,,---,0.00,VWS V14.00,2013-08-25 09:51:00,
2013-08-25 04:56:00,70.1,68.0,30.16,SE,130,0.0,0.0,93,0.00,,---,0.00,VWS V14.00,2013-08-25 09:56:00,
2013-08-25 05:01:00,69.9,67.8,30.16,SE,130,0.0,0.0,93,0.00,,---,0.00,VWS V14.00,2013-08-25 10:01:00,
2013-08-25 05:06:00,69.8,67.7,30.16,SE,130,0.0,0.0,93,0.00,,---,0.00,VWS V14.00,2013-08-25 10:06:00,
2013-08-25 05:11:00,69.8,67.7,30.16,SE,130,0.0,0.0,93,0.00,,---,0.00,VWS V14.00,2013-08-25 10:11:00,
2013-08-25 05:16:00,69.6,67.5,30.16,SE,130,0.0,0.0,93,0.00,,---,0.00,VWS V14.00,2013-08-25 10:16:00,
2013-08-25 05:21:00,69.4,67.3,30.16,SE,130,0.0,0.0,93,0.00,,---,0.00,VWS V14.00,2013-08-25 10:21:00,
2013-08-25 05:26:00,69.3,67.2,30.16,SE,130,0.0,0.0,93,0.00,,---,0.00,VWS V14.00,2013-08-25 10:26:00,
2013-08-25 05:31:00,69.1,67.0,30.17,SE,130,0.0,0.0,93,0.00,,---,0.00,VWS V14.00,2013-08-25 10:31:00,
2013-08-25 05:36:00,69.1,67.3,30.17,SE,130,0.0,0.0,94,0.00,,---,0.00,VWS V14.00,2013-08-25 10:36:00,
2013-08-25 05:41:00,69.3,67.5,30.17,SE,130,0.0,0.0,94,0.00,,---,0.00,VWS V14.00,2013-08-25 10:41:00,
2013-08-25 05:46:00,69.3,67.5,30.17,SE,130,0.0,0.0,94,0.00,,---,0.00,VWS V14.00,2013-08-25 10:46:00,
2013-08-25 05:51:00,69.1,67.3,30.17,SE,130,0.0,0.0,94,0.00,,---,0.00,VWS V14.00,2013-08-25 10:51:00,
2013-08-25 05:56:00,69.3,67.5,30.17,SE,130,0.0,0.0,94,0.00,,---,0.00,VWS V14.00,2013-08-25 10:56:00,
2013-08-25 06:01:00,69.1,67.3,30.17,SE,130,1.0,2.0,94,0.00,,---,0.00,VWS V14.00,2013-08-25 11:01:00,
2013-08-25 06:06:00,69.3,67.5,30.17,SE,130,0.0,0.0,94,0.00,,---,0.00,VWS V14.00,2013-08-25 11:06:00,
2013-08-25 06:11:00,69.3,67.2,30.18,SE,130,2.0,3.0,93,0.00,,---,0.00,VWS V14.00,2013-08-25 11:11:00,
2013-08-25 06:16:00,69.1,67.0,30.18,SE,130,0.0,0.0,93,0.00,,---,0.00,VWS V14.00,2013-08-25 11:16:00,
2013-08-25 06:21:00,69.1,67.0,30.18,SE,130,3.0,3.0,93,0.00,,---,0.00,VWS V14.00,2013-08-25 11:21:00,
2013-08-25 06:26:00,69.3,67.5,30.18,SE,130,2.0,3.0,94,0.00,,---,0.00,VWS V14.00,2013-08-25 11:26:00,
2013-08-25 06:31:00,69.1,67.0,30.19,SE,130,0.0,0.0,93,0.00,,---,0.00,VWS V14.00,2013-08-25 11:31:00,
2013-08-25 06:36:00,68.9,66.8,30.19,SE,130,3.0,3.0,93,0.00,,---,0.00,VWS V14.00,2013-08-25 11:36:00,
2013-08-25 06:41:00,68.8,67.0,30.19,SE,130,0.0,0.0,94,0.00,,---,0.00,VWS V14.00,2013-08-25 11:41:00,
2013-08-25 06:46:00,68.6,66.8,30.19,SE,130,0.0,0.0,94,0.00,,---,0.00,VWS V14.00,2013-08-25 11:46:00,
2013-08-25 06:51:00,68.8,67.0,30.19,SE,130,0.0,0.0,94,0.00,,---,0.00,VWS V14.00,2013-08-25 11:51:00,
2013-08-25 06:56:00,68.8,67.0,30.19,SE,130,0.0,0.0,94,0.00,,---,0.00,VWS V14.00,2013-08-25 11:56:00,
2013-08-25 07:01:00,68.6,66.8,30.20,SE,130,0.0,0.0,94,0.00,,---,0.00,VWS V14.00,2013-08-25 12:01:00,
2013-08-25 07:06:00,68.6,66.8,30.20,SE,130,0.0,0.0,94,0.00,,---,0.00,VWS V14.00,2013-08-25 12:06:00,
2013-08-25 07:11:00,68.6,66.8,30.20,SE,130,0.0,0.0,94,0.00,,---,0.00,VWS V14.00,2013-08-25 12:11:00,
2013-08-25 07:16:00,68.8,67.0,30.20,SE,130,0.0,0.0,94,0.00,,---,0.00,VWS V14.00,2013-08-25 12:16:00,
2013-08-25 07:21:00,68.9,67.1,30.20,SE,130,0.0,0.0,94,0.00,,---,0.00,VWS V14.00,2013-08-25 12:21:00,
2013-08-25 07:26:00,68.9,67.1,30.20,SE,130,0.0,0.0,94,0.00,,---,0.00,VWS V14.00,2013-08-25 12:26:00,
2013-08-25 07:31:00,69.1,67.3,30.20,SE,130,0.0,0.0,94,0.00,,---,0.00,VWS V14.00,2013-08-25 12:31:00,
2013-08-25 07:36:00,69.3,67.5,30.20,SE,130,0.0,0.0,94,0.00,,---,0.00,VWS V14.00,2013-08-25 12:36:00,
2013-08-25 07:41:00,69.6,67.8,30.20,SE,130,0.0,0.0,94,0.00,,---,0.00,VWS V14.00,2013-08-25 12:41:00,
2013-08-25 07:46:00,70.1,68.3,30.20,SE,130,0.0,0.0,94,0.00,,---,0.00,VWS V14.00,2013-08-25 12:46:00,
2013-08-25 07:51:00,70.6,68.8,30.20,SE,130,0.0,0.0,94,0.00,,---,0.00,VWS V14.00,2013-08-25 12:51:00,
2013-08-25 07:56:00,71.3,69.5,30.20,SE,130,0.0,0.0,94,0.00,,---,0.00,VWS V14.00,2013-08-25 12:56:00,
2013-08-25 08:01:00,72.1,70.3,30.21,SE,130,0.0,0.0,94,0.00,,---,0.00,VWS V14.00,2013-08-25 13:01:00,
2013-08-25 08:06:00,72.7,70.6,30.21,SE,130,0.0,0.0,93,0.00,,---,0.00,VWS V14.00,2013-08-25 13:06:00,
2013-08-25 08:11:00,72.7,70.2,30.21,SE,130,0.0,0.0,92,0.00,,---,0.00,VWS V14.00,2013-08-25 13:11:00,
2013-08-25 08:16:00,72.8,70.3,30.21,SE,130,0.0,0.0,92,0.00,,---,0.00,VWS V14.00,2013-08-25 13:16:00,
2013-08-25 08:21:00,72.8,70.0,30.21,SE,130,0.0,0.0,91,0.00,,---,0.00,VWS V14.00,2013-08-25 13:21:00,
2013-08-25 08:26:00,73.0,70.2,30.21,SE,130,0.0,0.0,91,0.00,,---,0.00,VWS V14.00,2013-08-25 13:26:00,
2013-08-25 08:31:00,73.5,70.4,30.20,SE,130,0.0,0.0,90,0.00,,---,0.00,VWS V14.00,2013-08-25 13:31:00,
2013-08-25 08:36:00,74.0,71.2,30.20,SE,130,0.0,0.0,91,0.00,,---,0.00,VWS V14.00,2013-08-25 13:36:00,
2013-08-25 08:41:00,74.9,71.4,30.20,SE,130,0.0,0.0,89,0.00,,---,0.00,VWS V14.00,2013-08-25 13:41:00,
2013-08-25 08:46:00,75.8,72.0,30.20,SE,130,0.0,0.0,88,0.00,,---,0.00,VWS V14.00,2013-08-25 13:46:00,
2013-08-25 08:51:00,76.7,72.5,30.20,SE,130,0.0,0.0,87,0.00,,---,0.00,VWS V14.00,2013-08-25 13:51:00,
2013-08-25 08:56:00,77.2,73.0,30.19,SE,130,0.0,0.0,87,0.00,,---,0.00,VWS V14.00,2013-08-25 13:56:00,
2013-08-25 09:01:00,77.9,73.4,30.19,SE,130,0.0,0.0,86,0.00,,---,0.00,VWS V14.00,2013-08-25 14:01:00,
2013-08-25 09:06:00,78.3,73.4,30.19,SE,130,0.0,0.0,85,0.00,,---,0.00,VWS V14.00,2013-08-25 14:06:00,
2013-08-25 09:11:00,78.3,73.1,30.19,SE,130,0.0,0.0,84,0.00,,---,0.00,VWS V14.00,2013-08-25 14:11:00,
2013-08-25 09:16:00,78.8,73.2,30.19,SE,130,0.0,0.0,83,0.00,,---,0.00,VWS V14.00,2013-08-25 14:16:00,
2013-08-25 09:21:00,79.4,73.4,30.19,SE,130,0.0,0.0,82,0.00,,---,0.00,VWS V14.00,2013-08-25 14:21:00,
2013-08-25 09:26:00,79.8,73.8,30.19,SE,130,0.0,0.0,82,0.00,,---,0.00,VWS V14.00,2013-08-25 14:26:00,
2013-08-25 09:31:00,80.3,73.9,30.19,SE,130,0.0,0.0,81,0.00,,---,0.00,VWS V14.00,2013-08-25 14:31:00,
2013-08-25 09:36:00,81.1,74.0,30.19,SE,130,0.0,0.0,79,0.00,,---,0.00,VWS V14.00,2013-08-25 14:36:00,
2013-08-25 09:41:00,81.4,74.3,30.19,SE,130,0.0,0.0,79,0.00,,---,0.00,VWS V14.00,2013-08-25 14:41:00,
2013-08-25 09:46:00,81.6,74.1,30.19,SE,130,0.0,0.0,78,0.00,,---,0.00,VWS V14.00,2013-08-25 14:46:00,
2013-08-25 09:51:00,82.2,74.7,30.19,SE,130,0.0,0.0,78,0.00,,---,0.00,VWS V14.00,2013-08-25 14:51:00,
2013-08-25 09:56:00,82.6,74.7,30.19,SE,130,0.0,0.0,77,0.00,,---,0.00,VWS V14.00,2013-08-25 14:56:00,
2013-08-25 10:01:00,82.8,74.5,30.19,SE,130,0.0,0.0,76,0.00,,---,0.00,VWS V14.00,2013-08-25 15:01:00,
2013-08-25 10:06:00,82.8,74.1,30.19,SE,130,0.0,0.0,75,0.00,,---,0.00,VWS V14.00,2013-08-25 15:06:00,
2013-08-25 10:11:00,81.8,73.1,30.19,SE,130,0.0,0.0,75,0.00,,---,0.00,VWS V14.00,2013-08-25 15:11:00,
2013-08-25 10:16:00,81.4,73.1,30.19,SE,130,0.0,0.0,76,0.00,,---,0.00,VWS V14.00,2013-08-25 15:16:00,
2013-08-25 10:21:00,81.6,72.9,30.19,SE,130,0.0,0.0,75,0.00,,---,0.00,VWS V14.00,2013-08-25 15:21:00,
2013-08-25 10:26:00,82.0,73.3,30.19,SE,130,0.0,0.0,75,0.00,,---,0.00,VWS V14.00,2013-08-25 15:26:00,
2013-08-25 10:31:00,82.4,73.7,30.19,SE,130,0.0,0.0,75,0.00,,---,0.00,VWS V14.00,2013-08-25 15:31:00,
2013-08-25 10:36:00,82.6,73.5,30.19,SE,130,0.0,0.0,74,0.00,,---,0.00,VWS V14.00,2013-08-25 15:36:00,
2013-08-25 10:41:00,83.0,73.9,30.18,SE,130,0.0,2.0,74,0.00,,---,0.00,VWS V14.00,2013-08-25 15:41:00,
2013-08-25 10:46:00,83.2,73.2,30.18,SE,130,0.0,0.0,72,0.00,,---,0.00,VWS V14.00,2013-08-25 15:46:00,
2013-08-25 10:51:00,83.6,73.6,30.18,SE,130,0.0,0.0,72,0.00,,---,0.00,VWS V14.00,2013-08-25 15:51:00,
2013-08-25 10:56:00,83.8,73.4,30.18,SE,130,2.0,4.0,71,0.00,,---,0.00,VWS V14.00,2013-08-25 15:56:00,
2013-08-25 11:01:00,83.8,73.4,30.18,SE,130,0.0,4.0,71,0.00,,---,0.00,VWS V14.00,2013-08-25 16:01:00,
2013-08-25 11:06:00,84.1,72.8,30.18,SE,130,0.0,0.0,69,0.00,,---,0.00,VWS V14.00,2013-08-25 16:06:00,
2013-08-25 11:11:00,84.5,73.2,30.18,SE,130,0.0,0.0,69,0.00,,---,0.00,VWS V14.00,2013-08-25 16:11:00,
2013-08-25 11:16:00,84.9,72.7,30.18,SE,130,0.0,3.0,67,0.00,,---,0.00,VWS V14.00,2013-08-25 16:16:00,
2013-08-25 11:21:00,85.1,72.9,30.18,SE,130,0.0,0.0,67,0.00,,---,0.00,VWS V14.00,2013-08-25 16:21:00,
2013-08-25 11:26:00,85.1,72.5,30.18,SE,130,0.0,0.0,66,0.00,,---,0.00,VWS V14.00,2013-08-25 16:26:00,
2013-08-25 11:31:00,85.3,72.7,30.18,SE,130,0.0,0.0,66,0.00,,---,0.00,VWS V14.00,2013-08-25 16:31:00,
2013-08-25 11:36:00,85.3,72.2,30.18,SE,130,4.0,6.0,65,0.00,,---,0.00,VWS V14.00,2013-08-25 16:36:00,
2013-08-25 11:41:00,85.3,72.2,30.18,SE,130,0.0,0.0,65,0.00,,---,0.00,VWS V14.00,2013-08-25 16:41:00,
2013-08-25 11:46:00,85.7,72.6,30.18,SE,130,0.0,0.0,65,0.00,,---,0.00,VWS V14.00,2013-08-25 16:46:00,
2013-08-25 11:51:00,86.1,72.5,30.18,SE,130,0.0,0.0,64,0.00,,---,0.00,VWS V14.00,2013-08-25 16:51:00,
2013-08-25 11:56:00,86.7,72.6,30.18,SE,130,0.0,0.0,63,0.00,,---,0.00,VWS V14.00,2013-08-25 16:56:00,
2013-08-25 12:01:00,87.2,72.1,30.18,SE,130,1.0,5.0,61,0.00,,---,0.00,VWS V14.00,2013-08-25 17:01:00,
2013-08-25 12:05:00,87.2,72.1,30.17,SE,130,0.0,0.0,61,0.00,,---,0.00,VWS V14.00,2013-08-25 17:05:00,
2013-08-25 12:10:00,87.2,71.6,30.17,SE,130,0.0,0.0,60,0.00,,---,0.00,VWS V14.00,2013-08-25 17:10:00,
2013-08-25 12:15:00,86.5,71.0,30.17,SE,130,0.0,2.0,60,0.00,,---,0.00,VWS V14.00,2013-08-25 17:15:00,
2013-08-25 12:20:00,86.5,70.5,30.17,SE,130,0.0,0.0,59,0.00,,---,0.00,VWS V14.00,2013-08-25 17:20:00,
2013-08-25 12:25:00,87.4,71.3,30.17,SE,130,0.0,0.0,59,0.00,,---,0.00,VWS V14.00,2013-08-25 17:25:00,
2013-08-25 12:30:00,87.0,70.4,30.17,SE,130,0.0,2.0,58,0.00,,---,0.00,VWS V14.00,2013-08-25 17:30:00,
2013-08-25 12:35:00,87.0,70.4,30.17,SE,130,0.0,0.0,58,0.00,,---,0.00,VWS V14.00,2013-08-25 17:35:00,
2013-08-25 12:40:00,87.4,70.3,30.17,SE,130,0.0,0.0,57,0.00,,---,0.00,VWS V14.00,2013-08-25 17:40:00,
2013-08-25 12:45:00,88.0,69.8,30.16,SE,130,0.0,0.0,55,0.00,,---,0.00,VWS V14.00,2013-08-25 17:45:00,
2013-08-25 12:50:00,88.0,70.3,30.16,SE,130,0.0,0.0,56,0.00,,---,0.00,VWS V14.00,2013-08-25 17:50:00,
2013-08-25 12:55:00,87.8,70.7,30.16,SE,130,0.0,0.0,57,0.00,,---,0.00,VWS V14.00,2013-08-25 17:55:00,
2013-08-25 13:00:00,88.0,69.8,30.16,SE,130,0.0,0.0,55,0.00,,---,0.00,VWS V14.00,2013-08-25 18:00:00,
2013-08-25 13:05:00,88.0,69.3,30.16,SE,130,0.0,0.0,54,0.00,,---,0.00,VWS V14.00,2013-08-25 18:05:00,
2013-08-25 13:10:00,88.0,69.3,30.16,SE,130,0.0,0.0,54,0.00,,---,0.00,VWS V14.00,2013-08-25 18:10:00,
2013-08-25 13:15:00,88.2,68.9,30.16,SE,130,0.0,0.0,53,0.00,,---,0.00,VWS V14.00,2013-08-25 18:15:00,
2013-08-25 13:20:00,88.0,68.7,30.15,SE,130,0.0,0.0,53,0.00,,---,0.00,VWS V14.00,2013-08-25 18:20:00,
2013-08-25 13:25:00,88.2,69.5,30.15,SE,130,0.0,0.0,54,0.00,,---,0.00,VWS V14.00,2013-08-25 18:25:00,
2013-08-25 13:30:00,88.8,69.5,30.15,SE,130,0.0,0.0,53,0.00,,---,0.00,VWS V14.00,2013-08-25 18:30:00,
2013-08-25 13:35:00,88.8,69.5,30.15,SE,130,0.0,0.0,53,0.00,,---,0.00,VWS V14.00,2013-08-25 18:35:00,
2013-08-25 13:40:00,88.6,68.7,30.15,SE,130,0.0,0.0,52,0.00,,---,0.00,VWS V14.00,2013-08-25 18:40:00,
2013-08-25 13:45:00,88.4,68.6,30.15,SE,130,0.0,3.0,52,0.00,,---,0.00,VWS V14.00,2013-08-25 18:45:00,
2013-08-25 13:50:00,88.4,68.6,30.15,SE,130,3.0,5.0,52,0.00,,---,0.00,VWS V14.00,2013-08-25 18:50:00,
2013-08-25 13:55:00,88.2,68.4,30.15,SE,130,2.0,2.0,52,0.00,,---,0.00,VWS V14.00,2013-08-25 18:55:00,
2013-08-25 14:00:00,88.6,68.7,30.15,SE,130,0.0,0.0,52,0.00,,---,0.00,VWS V14.00,2013-08-25 19:00:00,
2013-08-25 14:05:00,88.8,68.9,30.15,SE,130,0.0,0.0,52,0.00,,---,0.00,VWS V14.00,2013-08-25 19:05:00,
2013-08-25 14:10:00,89.3,69.4,30.15,SE,130,0.0,0.0,52,0.00,,---,0.00,VWS V14.00,2013-08-25 19:10:00,
2013-08-25 14:15:00,89.7,69.2,30.14,SE,130,0.0,0.0,51,0.00,,---,0.00,VWS V14.00,2013-08-25 19:15:00,
2013-08-25 14:20:00,89.5,68.4,30.14,SE,130,0.0,0.0,50,0.00,,---,0.00,VWS V14.00,2013-08-25 19:20:00,
2013-08-25 14:25:00,89.3,68.8,30.14,SE,130,0.0,0.0,51,0.00,,---,0.00,VWS V14.00,2013-08-25 19:25:00,
2013-08-25 14:30:00,89.3,68.8,30.14,SE,130,2.0,2.0,51,0.00,,---,0.00,VWS V14.00,2013-08-25 19:30:00,
2013-08-25 14:35:00,89.3,69.4,30.14,SE,130,0.0,0.0,52,0.00,,---,0.00,VWS V14.00,2013-08-25 19:35:00,
2013-08-25 14:40:00,89.7,68.6,30.13,SE,130,0.0,0.0,50,0.00,,---,0.00,VWS V14.00,2013-08-25 19:40:00,
2013-08-25 14:45:00,89.7,68.0,30.13,SE,130,0.0,0.0,49,0.00,,---,0.00,VWS V14.00,2013-08-25 19:45:00,
2013-08-25 14:50:00,89.7,68.0,30.13,SE,130,0.0,0.0,49,0.00,,---,0.00,VWS V14.00,2013-08-25 19:50:00,
2013-08-25 14:55:00,89.3,67.7,30.14,SE,130,0.0,0.0,49,0.00,,---,0.00,VWS V14.00,2013-08-25 19:55:00,
2013-08-25 15:00:00,88.8,68.4,30.13,SE,130,0.0,0.0,51,0.00,,---,0.00,VWS V14.00,2013-08-25 20:00:00,
2013-08-25 15:05:00,89.3,67.7,30.13,SE,130,0.0,0.0,49,0.00,,---,0.00,VWS V14.00,2013-08-25 20:05:00,
2013-08-25 15:10:00,89.5,67.8,30.13,SE,130,0.0,3.0,49,0.00,,---,0.00,VWS V14.00,2013-08-25 20:10:00,
2013-08-25 15:15:00,89.0,66.8,30.13,SE,130,0.0,3.0,48,0.00,,---,0.00,VWS V14.00,2013-08-25 20:15:00,
2013-08-25 15:20:00,89.5,67.8,30.13,SE,130,3.0,4.0,49,0.00,,---,0.00,VWS V14.00,2013-08-25 20:20:00,
2013-08-25 15:25:00,89.3,67.1,30.13,SE,130,0.0,0.0,48,0.00,,---,0.00,VWS V14.00,2013-08-25 20:25:00,
2013-08-25 15:30:00,89.5,66.6,30.12,SE,130,0.0,0.0,47,0.00,,---,0.00,VWS V14.00,2013-08-25 20:30:00,
2013-08-25 15:35:00,89.5,66.6,30.12,SE,130,0.0,0.0,47,0.00,,---,0.00,VWS V14.00,2013-08-25 20:35:00,
2013-08-25 15:40:00,89.9,67.6,30.12,SE,130,0.0,0.0,48,0.00,,---,0.00,VWS V14.00,2013-08-25 20:40:00,
2013-08-25 15:45:00,89.7,66.8,30.12,SE,130,0.0,0.0,47,0.00,,---,0.00,VWS V14.00,2013-08-25 20:45:00,
2013-08-25 15:50:00,89.7,66.8,30.12,SE,130,4.0,6.0,47,0.00,,---,0.00,VWS V14.00,2013-08-25 20:50:00,
2013-08-25 15:55:00,89.5,67.8,30.12,SE,130,4.0,5.0,49,0.00,,---,0.00,VWS V14.00,2013-08-25 20:55:00,
2013-08-25 16:00:00,89.3,67.7,30.12,SE,136,1.0,1.0,49,0.00,,---,0.00,VWS V14.00,2013-08-25 21:00:00,
2013-08-25 16:05:00,88.8,67.2,30.12,SE,136,0.0,0.0,49,0.00,,---,0.00,VWS V14.00,2013-08-25 21:05:00,
2013-08-25 16:10:00,88.6,68.2,30.12,SE,136,0.0,0.0,51,0.00,,---,0.00,VWS V14.00,2013-08-25 21:10:00,
2013-08-25 16:15:00,88.4,67.4,30.11,SE,136,0.0,0.0,50,0.00,,---,0.00,VWS V14.00,2013-08-25 21:15:00,
2013-08-25 16:20:00,88.8,67.8,30.11,SE,136,0.0,0.0,50,0.00,,---,0.00,VWS V14.00,2013-08-25 21:20:00,
2013-08-25 16:25:00,89.5,67.8,30.11,SE,136,0.0,0.0,49,0.00,,---,0.00,VWS V14.00,2013-08-25 21:25:00,
2013-08-25 16:30:00,89.5,67.8,30.11,SE,136,5.0,5.0,49,0.00,,---,0.00,VWS V14.00,2013-08-25 21:30:00,
2013-08-25 16:35:00,89.3,67.7,30.11,SE,136,3.0,3.0,49,0.00,,---,0.00,VWS V14.00,2013-08-25 21:35:00,
2013-08-25 16:40:00,89.3,66.4,30.11,SE,136,6.0,6.0,47,0.00,,---,0.00,VWS V14.00,2013-08-25 21:40:00,
2013-08-25 16:45:00,89.3,66.4,30.11,SE,136,1.0,4.0,47,0.00,,---,0.00,VWS V14.00,2013-08-25 21:45:00,
2013-08-25 16:50:00,89.3,66.4,30.11,SE,136,0.0,0.0,47,0.00,,---,0.00,VWS V14.00,2013-08-25 21:50:00,
2013-08-25 16:55:00,89.5,66.0,30.10,SE,136,0.0,1.0,46,0.00,,---,0.00,VWS V14.00,2013-08-25 21:55:00,
2013-08-25 17:00:00,89.5,66.0,30.11,SE,136,0.0,0.0,46,0.00,,---,0.00,VWS V14.00,2013-08-25 22:00:00,
2013-08-25 17:05:00,89.5,68.4,30.11,SE,136,3.0,3.0,50,0.00,,---,0.00,VWS V14.00,2013-08-25 22:05:00,
2013-08-25 17:10:00,89.3,66.4,30.10,SE,136,6.0,6.0,47,0.00,,---,0.00,VWS V14.00,2013-08-25 22:10:00,
2013-08-25 17:15:00,89.0,66.8,30.11,SE,136,5.0,5.0,48,0.00,,---,0.00,VWS V14.00,2013-08-25 22:15:00,
2013-08-25 17:20:00,89.0,66.8,30.10,SE,136,3.0,3.0,48,0.00,,---,0.00,VWS V14.00,2013-08-25 22:20:00,
2013-08-25 17:25:00,89.0,68.0,30.10,SE,136,2.0,4.0,50,0.00,,---,0.00,VWS V14.00,2013-08-25 22:25:00,
2013-08-25 17:30:00,89.0,68.5,30.10,SE,136,0.0,0.0,51,0.00,,---,0.00,VWS V14.00,2013-08-25 22:30:00,
2013-08-25 17:35:00,89.0,69.1,30.10,ENE,71,0.0,3.0,52,0.00,,---,0.00,VWS V14.00,2013-08-25 22:35:00,
2013-08-25 17:40:00,88.8,68.4,30.11,East,98,3.0,8.0,51,0.00,,---,0.00,VWS V14.00,2013-08-25 22:40:00,
2013-08-25 17:45:00,88.8,68.4,30.11,ESE,104,0.0,5.0,51,0.00,,---,0.00,VWS V14.00,2013-08-25 22:45:00,
2013-08-25 17:50:00,88.6,68.7,30.11,ESE,104,0.0,0.0,52,0.00,,---,0.00,VWS V14.00,2013-08-25 22:50:00,
2013-08-25 17:55:00,88.4,69.1,30.11,ESE,105,0.0,0.0,53,0.00,,---,0.00,VWS V14.00,2013-08-25 22:55:00,
2013-08-25 18:00:00,88.6,69.8,30.11,ESE,105,0.0,0.0,54,0.00,,---,0.00,VWS V14.00,2013-08-25 23:00:00,
2013-08-25 18:05:00,88.6,69.8,30.11,ESE,105,0.0,0.0,54,0.00,,---,0.00,VWS V14.00,2013-08-25 23:05:00,
2013-08-25 18:10:00,88.4,69.7,30.11,ESE,117,2.0,5.0,54,0.00,,---,0.00,VWS V14.00,2013-08-25 23:10:00,
2013-08-25 18:15:00,88.2,70.5,30.11,ESE,117,0.0,0.0,56,0.00,,---,0.00,VWS V14.00,2013-08-25 23:15:00,
2013-08-25 18:20:00,88.0,69.8,30.11,ESE,121,1.0,2.0,55,0.00,,---,0.00,VWS V14.00,2013-08-25 23:20:00,
2013-08-25 18:25:00,87.6,70.0,30.11,ESE,121,0.0,0.0,56,0.00,,---,0.00,VWS V14.00,2013-08-25 23:25:00,
2013-08-25 18:30:00,87.4,70.3,30.11,ESE,121,0.0,0.0,57,0.00,,---,0.00,VWS V14.00,2013-08-25 23:30:00,
2013-08-25 18:35:00,87.2,70.6,30.11,ESE,121,0.0,0.0,58,0.00,,---,0.00,VWS V14.00,2013-08-25 23:35:00,
2013-08-25 18:40:00,87.0,70.9,30.11,ESE,121,0.0,0.0,59,0.00,,---,0.00,VWS V14.00,2013-08-25 23:40:00,
2013-08-25 18:45:00,86.5,71.0,30.11,ESE,121,0.0,0.0,60,0.00,,---,0.00,VWS V14.00,2013-08-25 23:45:00,
2013-08-25 18:50:00,86.3,71.8,30.11,ESE,121,0.0,0.0,62,0.00,,---,0.00,VWS V14.00,2013-08-25 23:50:00,
2013-08-25 18:55:00,86.1,71.6,30.11,ESE,121,0.0,0.0,62,0.00,,---,0.00,VWS V14.00,2013-08-25 23:55:00,
2013-08-25 19:00:00,85.9,72.3,30.10,ESE,121,0.0,0.0,64,0.00,,---,0.00,VWS V14.00,2013-08-26 00:00:00,
2013-08-25 19:05:00,85.9,72.3,30.10,ESE,121,0.0,3.0,64,0.00,,---,0.00,VWS V14.00,2013-08-26 00:05:00,
2013-08-25 19:10:00,85.9,71.4,30.10,SE,126,2.0,4.0,62,0.00,,---,0.00,VWS V14.00,2013-08-26 00:10:00,
2013-08-25 19:15:00,85.7,71.2,30.10,SE,127,1.0,2.0,62,0.00,,---,0.00,VWS V14.00,2013-08-26 00:15:00,
2013-08-25 19:20:00,85.5,71.5,30.11,SE,127,0.0,0.0,63,0.00,,---,0.00,VWS V14.00,2013-08-26 00:20:00,
2013-08-25 19:25:00,85.1,71.1,30.11,SE,127,0.0,0.0,63,0.00,,---,0.00,VWS V14.00,2013-08-26 00:25:00,
2013-08-25 19:30:00,84.7,71.2,30.11,SE,127,0.0,0.0,64,0.00,,---,0.00,VWS V14.00,2013-08-26 00:30:00,
2013-08-25 19:35:00,84.3,71.3,30.12,SE,127,0.0,0.0,65,0.00,,---,0.00,VWS V14.00,2013-08-26 00:35:00,
2013-08-25 19:40:00,84.0,71.4,30.12,SE,127,0.0,0.0,66,0.00,,---,0.00,VWS V14.00,2013-08-26 00:40:00,
2013-08-25 19:45:00,83.6,71.1,30.12,SE,127,0.0,0.0,66,0.00,,---,0.00,VWS V14.00,2013-08-26 00:45:00,
2013-08-25 19:50:00,83.4,71.3,30.12,SE,127,0.0,0.0,67,0.00,,---,0.00,VWS V14.00,2013-08-26 00:50:00,
2013-08-25 19:55:00,83.2,71.1,30.12,SE,127,0.0,0.0,67,0.00,,---,0.00,VWS V14.00,2013-08-26 00:55:00,
2013-08-25 20:00:00,82.8,70.7,30.12,SE,127,0.0,0.0,67,0.00,,---,0.00,VWS V14.00,2013-08-26 01:00:00,
2013-08-25 20:05:00,82.4,71.2,30.12,SE,127,0.0,0.0,69,0.00,,---,0.00,VWS V14.00,2013-08-26 01:05:00,
2013-08-25 20:10:00,82.2,71.4,30.12,SE,127,0.0,0.0,70,0.00,,---,0.00,VWS V14.00,2013-08-26 01:10:00,
2013-08-25 20:15:00,81.8,71.5,30.12,SE,127,0.0,0.0,71,0.00,,---,0.00,VWS V14.00,2013-08-26 01:15:00,
2013-08-25 20:19:00,81.8,71.9,30.13,SE,127,0.0,0.0,72,0.00,,---,0.00,VWS V14.00,2013-08-26 01:19:00,
2013-08-25 20:24:00,81.4,71.1,30.13,SE,127,0.0,0.0,71,0.00,,---,0.00,VWS V14.00,2013-08-26 01:24:00,
2013-08-25 20:29:00,81.1,71.2,30.13,SE,127,0.0,0.0,72,0.00,,---,0.00,VWS V14.00,2013-08-26 01:29:00,
2013-08-25 20:34:00,80.7,71.2,30.13,SE,127,0.0,0.0,73,0.00,,---,0.00,VWS V14.00,2013-08-26 01:34:00,
2013-08-25 20:39:00,80.3,71.3,30.13,SE,127,0.0,0.0,74,0.00,,---,0.00,VWS V14.00,2013-08-26 01:39:00,
2013-08-25 20:44:00,80.1,71.5,30.14,SE,127,0.0,0.0,75,0.00,,---,0.00,VWS V14.00,2013-08-26 01:44:00,
2013-08-25 20:49:00,79.8,71.6,30.14,SE,127,0.0,0.0,76,0.00,,---,0.00,VWS V14.00,2013-08-26 01:49:00,
2013-08-25 20:54:00,79.4,71.6,30.14,SE,127,0.0,0.0,77,0.00,,---,0.00,VWS V14.00,2013-08-26 01:54:00,
2013-08-25 20:59:00,79.2,71.4,30.14,SE,127,0.0,0.0,77,0.00,,---,0.00,VWS V14.00,2013-08-26 01:59:00,
2013-08-25 21:04:00,79.0,71.6,30.14,SE,127,0.0,0.0,78,0.00,,---,0.00,VWS V14.00,2013-08-26 02:04:00,
2013-08-25 21:09:00,78.8,71.7,30.14,SE,127,0.0,0.0,79,0.00,,---,0.00,VWS V14.00,2013-08-26 02:09:00,
2013-08-25 21:14:00,78.6,71.9,30.15,SE,127,0.0,0.0,80,0.00,,---,0.00,VWS V14.00,2013-08-26 02:14:00,
2013-08-25 21:19:00,78.3,71.6,30.15,SE,127,0.0,0.0,80,0.00,,---,0.00,VWS V14.00,2013-08-26 02:19:00,
2013-08-25 21:24:00,78.3,72.0,30.15,SE,127,0.0,0.0,81,0.00,,---,0.00,VWS V14.00,2013-08-26 02:24:00,
2013-08-25 21:29:00,78.1,71.8,30.15,SE,127,0.0,0.0,81,0.00,,---,0.00,VWS V14.00,2013-08-26 02:29:00,
2013-08-25 21:34:00,77.9,71.6,30.15,SE,127,0.0,0.0,81,0.00,,---,0.00,VWS V14.00,2013-08-26 02:34:00,
2013-08-25 21:39:00,77.7,71.4,30.15,SE,127,0.0,0.0,81,0.00,,---,0.00,VWS V14.00,2013-08-26 02:39:00,
2013-08-25 21:44:00,77.7,71.8,30.15,SE,127,1.0,1.0,82,0.00,,---,0.00,VWS V14.00,2013-08-26 02:44:00,
2013-08-25 21:49:00,77.6,71.7,30.16,SE,127,0.0,0.0,82,0.00,,---,0.00,VWS V14.00,2013-08-26 02:49:00,
2013-08-25 21:54:00,77.4,71.5,30.16,SE,127,0.0,0.0,82,0.00,,---,0.00,VWS V14.00,2013-08-26 02:54:00,
2013-08-25 21:59:00,77.4,71.5,30.16,SE,127,2.0,2.0,82,0.00,,---,0.00,VWS V14.00,2013-08-26 02:59:00,
2013-08-25 22:04:00,77.0,71.4,30.16,SE,127,1.0,1.0,83,0.00,,---,0.00,VWS V14.00,2013-08-26 03:04:00,
2013-08-25 22:09:00,76.5,71.3,30.16,SE,127,4.0,4.0,84,0.00,,---,0.00,VWS V14.00,2013-08-26 03:09:00,
2013-08-25 22:14:00,76.1,70.9,30.16,SE,127,3.0,4.0,84,0.00,,---,0.00,VWS V14.00,2013-08-26 03:14:00,
2013-08-25 22:19:00,76.1,71.3,30.16,SE,127,0.0,2.0,85,0.00,,---,0.00,VWS V14.00,2013-08-26 03:19:00,
2013-08-25 22:24:00,76.0,70.8,30.16,SE,127,0.0,0.0,84,0.00,,---,0.00,VWS V14.00,2013-08-26 03:24:00,
2013-08-25 22:29:00,76.0,70.8,30.17,SE,127,0.0,0.0,84,0.00,,---,0.00,VWS V14.00,2013-08-26 03:29:00,
2013-08-25 22:34:00,76.0,70.8,30.17,SE,127,0.0,0.0,84,0.00,,---,0.00,VWS V14.00,2013-08-26 03:34:00,
2013-08-25 22:39:00,75.8,71.0,30.17,SE,127,2.0,2.0,85,0.00,,---,0.00,VWS V14.00,2013-08-26 03:39:00,
2013-08-25 22:44:00,75.6,70.8,30.17,SE,127,3.0,3.0,85,0.00,,---,0.00,VWS V14.00,2013-08-26 03:44:00,
2013-08-25 22:49:00,75.4,70.9,30.17,SE,127,4.0,5.0,86,0.00,,---,0.00,VWS V14.00,2013-08-26 03:49:00,
2013-08-25 22:54:00,75.6,71.1,30.17,SE,127,3.0,3.0,86,0.00,,---,0.00,VWS V14.00,2013-08-26 03:54:00,
2013-08-25 22:59:00,75.6,70.8,30.17,SE,127,2.0,2.0,85,0.00,,---,0.00,VWS V14.00,2013-08-26 03:59:00,
2013-08-25 23:01:00,75.8,71.3,30.17,SE,127,0.0,0.0,86,0.00,,---,0.00,VWS V14.00,2013-08-26 04:01:00,
2013-08-25 23:06:00,75.3,70.8,30.17,SE,127,1.0,3.0,86,0.00,,---,0.00,VWS V14.00,2013-08-26 04:06:00,
2013-08-25 23:11:00,75.1,70.6,30.17,SE,127,1.0,3.0,86,0.00,,---,0.00,VWS V14.00,2013-08-26 04:11:00,
2013-08-25 23:16:00,74.9,70.4,30.17,SE,127,0.0,0.0,86,0.00,,---,0.00,VWS V14.00,2013-08-26 04:16:00,
2013-08-25 23:21:00,74.7,70.6,30.17,SE,127,0.0,0.0,87,0.00,,---,0.00,VWS V14.00,2013-08-26 04:21:00,
2013-08-25 23:26:00,74.6,70.5,30.17,SE,127,0.0,0.0,87,0.00,,---,0.00,VWS V14.00,2013-08-26 04:26:00,
2013-08-25 23:31:00,74.6,70.5,30.18,SE,127,0.0,0.0,87,0.00,,---,0.00,VWS V14.00,2013-08-26 04:31:00,
2013-08-25 23:36:00,74.6,70.5,30.18,SE,127,0.0,0.0,87,0.00,,---,0.00,VWS V14.00,2013-08-26 04:36:00,
2013-08-25 23:41:00,74.4,70.3,30.18,SE,127,0.0,0.0,87,0.00,,---,0.00,VWS V14.00,2013-08-26 04:41:00,
2013-08-25 23:46:00,74.4,70.3,30.18,SE,127,0.0,0.0,87,0.00,,---,0.00,VWS V14.00,2013-08-26 04:46:00,
2013-08-25 23:51:00,74.2,70.4,30.18,SE,127,0.0,0.0,88,0.00,,---,0.00,VWS V14.00,2013-08-26 04:51:00,
2013-08-25 23:56:00,74.2,70.4,30.18,SE,127,0.0,0.0,88,0.00,,---,0.00,VWS V14.00,2013-08-26 04:56:00,